SCP
1 0 0 0 0 1 0 0 0 0 0 0 0 0 0 0 0 0 0 0 0 0 0 0 0 0 0 0 0 0 0 0 0 0 0 0 0 0 -0 -0 -0 -0 -0
1 0 0 0 0 0 0 0 0 0 0 0 0 0 0 0 0 0 0 0 -0 0 0 0 0 0 0 0 0 0 0 0 0 0 0 0 0 0 -0 -0 -0 -0 -0
1 0 0 0 0 0 0 0 0 0 0 0 0 0 0 0 0 0 0 0 0 0 0 0 0 0 0 0 0 0 0 0 0 0 0 0 0 0 0 -0 -0 -0 -0
1 0 0 0 0 0 0 0 0 0 0 0 0 0 0 0 0 0 0 0 0 0 0 0 0 0 0 0 0 0 0 0 0 0 0 0 0 0 0 0 0 0 -0
1 0 0 0 0 0 0 0 0 0 0 0 0 0 0 0 0 0 0 0 0 0 0 0 0 0 0 0 0 0 0 0 0 0 0 0 0 0 0 0 0 0 0
0 1 1 0 0 0 0 0 0 0 0 0 0 0 0 0 0 0 0 0 0 0 0 0 0 0 0 0 0 0 0 0 0 0 0 0 0 0 0 0 -0 -0 -0
0 0 1 1 0 0 0 0 0 0 0 0 0 0 0 0 0 0 0 0 0 0 0 0 0 0 0 0 0 0 0 0 0 0 0 0 0 0 0 0 -0 -0 -0
0 0 0 1 0 1 0 0 0 0 0 0 0 0 0 0 0 0 0 0 0 0 0 0 0 0 0 0 0 0 0 0 0 0 0 0 0 0 0 0 -0 -0 -0
0 0 0 1 1 1 0 0 0 0 0 0 0 0 0 0 0 0 0 0 0 0 0 0 0 0 0 0 0 0 0 0 0 0 0 0 0 0 0 0 -0 0 -0
0 0 0 0 1 1 1 0 0 0 0 0 0 0 0 0 0 0 0 0 0 0 0 0 0 0 0 0 0 0 0 0 0 0 0 0 0 0 0 0 0 0 0
0 0 0 0 1 1 0 0 0 0 0 0 0 0 0 0 0 0 0 0 0 0 0 0 0 0 0 0 0 0 0 0 0 0 0 0 0 0 0 0 0 0 0
0 0 0 0 1 0 0 0 0 0 0 0 0 0 0 0 0 0 0 0 0 0 0 0 0 0 0 0 0 0 0 0 0 0 0 0 0 0 0 0 0 0 0
0 0 0 0 0 0 0 0 0 0 0 0 0 0 0 0 0 0 0 0 0 0 0 0 0 0 0 0 0 0 0 0 0 0 0 0 0 0 0 0 0 0 0
0 -0 0 0 0 0 0 0 0 0 0 0 0 0 0 0 0 0 0 0 0 0 0 0 0 0 0 0 0 0 0 0 0 0 0 0 0 0 0 0 0 0 0
0 0 0 0 0 0 0 0 0 0 0 0 0 0 0 0 0 0 0 0 0 0 0 0 0 0 0 0 0 0 0 -0 -0 -0 -0 -0 0 0 0 0 0 0 0
0 0 0 0 0 0 0 0 0 0 0 0 0 0 0 0 0 0 0 0 0 0 0 0 0 0 0 0 0 0 0 -0 -0 -0 -0 0 0 0 0 0 0 0 0
0 0 0 0 0 0 0 0 0 0 0 0 0 0 0 0 0 0 0 0 0 0 0 0 0 0 0 0 0 0 0 0 0 0 0 0 0 0 0 0 0 0 0
0 0 0 0 0 0 0 0 0 0 0 0 0 0 0 0 0 0 0 0 0 0 0 0 0 0 0 0 0 0 0 0 0 0 0 0 0 0 0 0 0 0 0
0 0 0 0 0 0 0 0 0 0 0 0 0 0 0 0 0 0 0 0 0 0 0 0 0 0 0 0 0 0 0 0 0 0 0 0 0 0 0 0 0 0 0
0 0 0 0 0 0 0 0 0 0 0 0 0 0 0 0 0 0 0 0 -0 -0 -0 -0 0 0 0 0 0 0 0 0 0 0 0 0 0 0 0 0 0 0 0
0 0 0 0 0 0 0 0 0 0 0 0 0 0 0 0 -0 -0 0 -0 -0 -0 -0 -0 0 0 0 0 0 0 0 0 0 0 0 0 0 0 0 0 0 0 0
0 0 0 0 0 0 0 0 0 0 0 0 0 0 0 -0 -0 -0 -0 -0 -0 -0 -0 0 0 0 0 0 0 0 0 0 0 0 0 0 0 0 0 0 0 0 0
0 0 0 0 0 -0 0 0 0 0 0 0 0 0 0 -0 -0 -0 -0 -0 -0 -0 -0 0 0 0 0 0 0 0 0 0 0 0 0 0 0 0 0 0 0 0 0
0 0 0 0 0 0 0 0 0 0 0 0 0 0 -0 0 -0 -0 -0 -0 -0 -0 -0 0 0 0 0 0 0 0 0 0 0 0 0 0 0 0 0 0 -0 0 0
0 0 0 0 0 0 -0 -0 -0 0 0 0 0 0 0 0 -0 -0 -0 -0 -0 -0 -0 -0 -0 0 0 0 0 0 0 0 0 0 0 0 0 0 0 0 0 -0 0
0 0 0 0 0 0 -0 -0 0 0 0 0 0 0 -0 -0 -0 -0 -0 -0 -0 0 0 0 0 0 0 0 0 0 0 0 0 0 0 0 0 0 0 0 0 0 0
Wind_Speed_500mb
45 45 50 50 48 47 48 43 36 34 32 33 36 39 34 28 26 23 11 4 10 19 13 13 17 20 23 26 32 35 38 41 45 49 54 57 60 62 68 72 80 65 73
46 45 46 49 50 48 49 43 40 37 33 37 39 44 43 38 34 28 14 3 8 18 15 9 11 17 17 22 28 30 34 38 43 47 52 54 58 60 61 64 73 78 69
53 53 46 43 46 43 44 46 42 41 37 39 39 43 44 32 29 30 19 12 6 4 12 8 7 11 14 19 24 27 29 36 39 43 47 51 53 57 61 61 63 69 80
63 57 54 50 45 44 45 42 44 43 39 37 37 42 43 36 32 34 27 18 7 6 8 6 0 8 11 17 20 24 28 30 34 39 43 46 50 53 55 60 60 65 69
68 62 62 53 51 49 52 52 48 49 41 38 40 42 46 41 39 45 32 20 6 8 8 5 5 4 8 12 20 25 27 30 29 32 38 40 45 48 51 55 59 60 61
74 64 63 60 55 53 54 52 53 51 44 40 43 41 45 44 39 46 30 17 9 3 8 8 5 2 5 1 11 15 22 23 26 30 31 37 39 43 47 52 56 59 59
59 61 69 65 62 60 52 51 47 52 44 50 44 35 34 34 32 35 30 18 11 10 6 5 9 3 8 3 7 9 17 15 22 24 26 29 33 36 41 46 50 52 54
62 66 61 59 59 64 61 53 58 58 53 56 47 40 29 26 36 37 25 15 15 16 12 5 8 9 13 11 8 9 19 19 17 21 19 24 28 29 35 37 43 47 52
54 56 65 59 57 57 61 57 54 49 61 56 51 37 20 12 38 26 25 20 18 16 13 10 14 13 14 15 8 12 19 23 14 8 15 19 25 25 28 34 34 42 44
44 49 52 62 59 66 64 59 54 58 58 56 55 51 36 32 24 20 21 21 20 13 10 13 17 17 11 19 9 14 20 20 13 12 15 7 11 15 19 28 32 34 32
44 43 45 48 54 64 61 58 62 63 60 52 61 64 42 35 37 34 34 26 21 14 11 8 7 6 5 11 14 19 20 14 17 15 23 8 11 18 15 14 25 27 19
49 45 40 48 50 56 60 56 57 54 49 47 58 56 44 58 47 36 35 38 26 23 14 10 5 7 10 11 18 20 10 10 14 17 12 13 20 24 19 11 13 16 11
58 50 40 46 49 45 47 51 48 42 44 42 40 59 66 54 36 33 37 47 36 28 15 9 4 4 7 10 10 9 6 11 12 12 21 21 23 22 19 14 12 10 6
64 51 39 41 43 45 48 47 46 45 46 43 38 46 59 41 30 29 33 42 40 22 20 13 10 4 7 5 6 4 4 7 6 15 16 16 16 16 20 19 14 9 9
59 45 38 39 43 44 43 43 48 53 58 58 41 47 46 34 31 24 23 26 48 32 23 21 18 18 19 19 23 18 16 11 11 12 8 6 17 19 20 19 18 15 28
52 41 31 35 42 43 42 49 55 43 57 57 45 52 38 35 32 27 24 27 35 13 25 29 31 26 20 20 18 11 15 10 16 14 13 12 10 10 16 10 11 22 24
46 34 33 34 45 45 42 47 59 46 60 51 52 45 40 34 34 32 32 40 30 17 29 42 37 32 25 10 18 12 9 13 17 7 8 10 12 12 12 26 23 14 22
40 26 25 26 32 36 31 34 51 64 47 53 55 44 38 36 35 39 41 34 22 20 28 49 43 34 26 19 16 11 10 11 10 16 8 10 12 3 7 3 6 12 14
33 21 15 21 27 35 37 52 61 63 46 59 48 41 41 38 42 41 36 30 25 28 32 38 47 33 26 16 8 5 7 10 11 14 15 20 28 23 22 2 15 17 16
29 30 25 30 32 32 52 63 62 47 64 54 47 42 43 39 40 37 36 30 28 30 31 28 35 31 23 16 4 4 7 10 11 12 13 15 16 17 27 21 17 10 14
27 30 29 23 31 51 66 66 58 71 59 55 52 50 45 39 38 32 28 27 27 27 31 34 28 23 13 9 4 4 7 10 11 12 13 12 14 17 19 27 34 33 31
23 30 30 32 39 76 69 67 73 68 64 57 61 54 48 41 36 34 36 36 26 25 32 25 20 15 9 4 5 5 6 10 11 7 11 15 14 16 17 27 28 27 27
25 34 35 44 50 55 69 67 74 72 63 58 59 55 49 43 42 41 41 45 41 34 23 13 12 15 15 14 9 8 8 8 3 4 10 12 12 13 14 14 17 21 25
18 46 51 43 70 77 74 82 78 72 62 61 55 45 42 46 43 39 41 39 36 31 24 23 21 25 21 16 10 7 11 10 9 8 8 7 13 16 19 20 21 23 28
22 65 59 59 57 74 79 80 74 70 65 59 46 50 53 49 39 30 26 33 37 40 36 29 27 24 20 18 15 15 14 11 13 19 16 10 9 11 18 25 28 29 29
55 58 55 77 89 83 79 74 71 70 70 64 66 59 49 43 37 27 23 33 44 43 32 31 30 26 26 26 24 21 20 15 11 15 21 14 11 5 6 22 28 28 29
Wind_Direction_500mb
264 268 262 260 256 251 247 241 245 251 244 237 232 233 238 251 254 223 219 31 25 15 5 18 40 39 38 38 41 40 37 32 35 36 35 33 34 32 35 33 27 30 35
264 269 268 258 254 250 248 246 252 255 248 244 237 235 242 250 245 218 201 159 38 352 355 360 46 50 45 40 43 43 41 35 33 34 35 35 35 33 35 38 37 31 35
262 261 263 258 250 251 243 249 251 246 245 244 240 237 241 248 246 220 205 207 158 316 339 335 24 42 55 40 43 45 45 38 31 33 35 37 37 37 36 35 36 42 37
264 261 256 256 249 248 246 247 245 241 247 242 239 239 238 241 237 214 206 211 190 301 319 316 284 52 50 35 37 43 39 39 37 31 36 38 39 40 37 36 34 37 40
262 257 252 249 249 249 253 250 244 239 241 244 239 243 242 242 231 215 198 190 196 296 285 262 201 25 22 33 41 20 34 35 36 31 35 40 42 43 40 40 38 36 38
256 258 247 253 250 250 252 248 252 243 242 250 241 245 239 240 228 210 194 169 185 292 276 232 229 294 334 41 46 38 15 32 39 34 30 41 45 46 42 39 38 37 40
258 256 253 251 252 248 251 244 242 245 237 240 240 235 224 216 220 201 183 172 199 208 267 253 241 258 274 258 26 5 353 18 30 37 25 42 40 45 49 44 38 39 38
265 260 260 256 252 244 245 241 228 228 240 238 225 203 175 177 192 180 176 182 195 194 224 288 240 261 256 253 242 315 329 348 4 20 30 23 31 40 49 49 43 40 38
268 264 255 253 242 239 242 236 229 230 231 228 222 204 164 176 137 155 171 186 198 200 225 249 262 269 260 260 254 326 314 327 336 23 348 10 13 28 40 41 50 40 37
280 273 261 247 240 235 235 238 235 228 234 225 209 206 206 178 165 143 162 189 194 210 241 253 261 272 262 255 250 301 301 318 319 328 332 347 354 19 27 31 36 39 31
304 288 263 241 236 231 231 230 238 228 236 224 219 196 213 211 197 178 164 169 173 172 232 234 246 241 267 295 301 314 311 314 319 322 309 307 345 352 11 18 28 26 51
312 291 270 241 236 227 226 230 230 226 228 230 220 204 201 189 192 188 174 184 172 131 183 182 185 258 264 277 292 299 323 325 336 327 300 306 319 325 343 2 5 22 37
312 287 285 253 226 214 220 219 208 217 210 202 202 204 201 215 220 211 201 175 160 142 142 161 174 250 297 295 303 303 337 340 337 326 297 335 343 346 342 328 348 351 356
309 281 285 248 215 214 216 216 214 199 194 197 187 212 204 209 210 212 203 187 158 147 146 126 83 5 23 30 33 320 199 155 129 50 51 73 59 23 15 19 358 330 142
310 275 267 230 214 221 219 214 203 206 199 188 192 204 217 201 197 197 203 216 189 153 148 140 110 106 104 125 115 111 97 64 63 78 61 44 59 65 47 45 58 73 101
316 298 249 224 215 218 213 200 201 214 196 180 189 210 195 189 186 186 188 185 182 187 148 147 139 133 130 123 104 87 100 85 87 86 83 82 94 85 92 94 102 93 94
313 303 257 223 211 207 206 215 220 209 180 176 182 180 175 173 175 176 176 173 182 185 175 149 148 143 136 138 119 93 100 95 81 51 27 12 19 33 89 101 117 156 111
299 303 240 221 200 209 213 207 193 175 175 173 165 168 166 164 166 168 167 170 174 160 169 157 148 141 130 120 107 89 70 49 46 63 354 335 324 9 73 48 114 154 156
293 285 234 215 212 214 205 188 179 171 184 165 161 162 157 159 161 160 162 169 160 162 168 156 150 144 133 119 98 44 49 33 21 22 17 54 54 45 49 309 266 280 308
282 266 264 224 214 217 198 175 173 187 162 153 152 152 150 156 153 155 157 156 157 154 156 146 149 150 143 130 83 48 10 29 43 43 43 46 42 40 38 28 14 325 307
269 254 243 238 222 204 179 174 184 158 151 146 145 144 144 147 146 150 150 145 146 147 142 143 144 146 141 129 118 44 26 44 47 47 29 29 24 17 24 43 33 30 32
278 257 215 221 205 181 170 172 159 149 147 148 146 145 142 142 137 134 129 117 107 115 131 136 142 137 127 115 98 53 18 348 350 6 360 12 39 16 22 46 45 36 29
276 216 212 195 153 146 167 163 152 149 147 152 145 143 142 141 141 135 129 128 124 125 113 105 129 119 120 112 72 31 357 348 15 20 342 13 26 16 18 358 353 16 19
253 190 169 159 157 161 157 155 153 149 152 149 144 144 139 135 133 130 133 130 126 119 115 116 113 111 105 95 83 44 34 27 41 22 357 29 26 32 22 18 20 17 26
231 181 161 162 174 164 156 155 155 152 147 139 136 134 129 124 127 130 132 136 133 124 121 116 108 98 95 86 67 48 31 17 47 48 45 43 18 43 27 35 36 38 45
173 166 158 174 166 157 156 156 154 149 141 134 134 132 125 123 124 121 121 125 119 111 111 107 103 100 85 74 65 57 50 37 49 49 40 34 37 38 39 42 48 55 57
Wind_Speed_850mb
45 45 50 50 48 47 48 43 36 34 32 33 36 39 34 28 26 23 11 4 10 19 13 13 17 20 23 26 32 35 38 41 45 49 54 57 60 62 68 72 80 65 73
46 45 46 49 50 48 49 43 40 37 33 37 39 44 43 38 34 28 14 3 8 18 15 9 11 17 17 22 28 30 34 38 43 47 52 54 58 60 61 64 73 78 69
53 53 46 43 46 43 44 46 42 41 37 39 39 43 44 32 29 30 19 12 6 4 12 8 7 11 14 19 24 27 29 36 39 43 47 51 53 57 61 61 63 69 80
63 57 54 50 45 44 45 42 44 43 39 37 37 42 43 36 32 34 27 18 7 6 8 6 0 8 11 17 20 24 28 30 34 39 43 46 50 53 55 60 60 65 69
68 62 62 53 51 49 52 52 48 49 41 38 40 42 46 41 39 45 32 20 6 8 8 5 5 4 8 12 20 25 27 30 29 32 38 40 45 48 51 55 59 60 61
74 64 63 60 55 53 54 52 53 51 44 40 43 41 45 44 39 46 30 17 9 3 8 8 5 2 5 1 11 15 22 23 26 30 31 37 39 43 47 52 56 59 59
59 61 69 65 62 60 52 51 47 52 44 50 44 35 34 34 32 35 30 18 11 10 6 5 9 3 8 3 7 9 17 15 22 24 26 29 33 36 41 46 50 52 54
62 66 61 59 59 64 61 53 58 58 53 56 47 40 29 26 36 37 25 15 15 16 12 5 8 9 13 11 8 9 19 19 17 21 19 24 28 29 35 37 43 47 52
54 56 65 59 57 57 61 57 54 49 61 56 51 37 20 12 38 26 25 20 18 16 13 10 14 13 14 15 8 12 19 23 14 8 15 19 25 25 28 34 34 42 44
44 49 52 62 59 66 64 59 54 58 58 56 55 51 36 32 24 20 21 21 20 13 10 13 17 17 11 19 9 14 20 20 13 12 15 7 11 15 19 28 32 34 32
44 43 45 48 54 64 61 58 62 63 60 52 61 64 42 35 37 34 34 26 21 14 11 8 7 6 5 11 14 19 20 14 17 15 23 8 11 18 15 14 25 27 19
49 45 40 48 50 56 60 56 57 54 49 47 58 56 44 58 47 36 35 38 26 23 14 10 5 7 10 11 18 20 10 10 14 17 12 13 20 24 19 11 13 16 11
58 50 40 46 49 45 47 51 48 42 44 42 40 59 66 54 36 33 37 47 36 28 15 9 4 4 7 10 10 9 6 11 12 12 21 21 23 22 19 14 12 10 6
64 51 39 41 43 45 48 47 46 45 46 43 38 46 59 41 30 29 33 42 40 22 20 13 10 4 7 5 6 4 4 7 6 15 16 16 16 16 20 19 14 9 9
59 45 38 39 43 44 43 43 48 53 58 58 41 47 46 34 31 24 23 26 48 32 23 21 18 18 19 19 23 18 16 11 11 12 8 6 17 19 20 19 18 15 28
52 41 31 35 42 43 42 49 55 43 57 57 45 52 38 35 32 27 24 27 35 13 25 29 31 26 20 20 18 11 15 10 16 14 13 12 10 10 16 10 11 22 24
46 34 33 34 45 45 42 47 59 46 60 51 52 45 40 34 34 32 32 40 30 17 29 42 37 32 25 10 18 12 9 13 17 7 8 10 12 12 12 26 23 14 22
40 26 25 26 32 36 31 34 51 64 47 53 55 44 38 36 35 39 41 34 22 20 28 49 43 34 26 19 16 11 10 11 10 16 8 10 12 3 7 3 6 12 14
33 21 15 21 27 35 37 52 61 63 46 59 48 41 41 38 42 41 36 30 25 28 32 38 47 33 26 16 8 5 7 10 11 14 15 20 28 23 22 2 15 17 16
29 30 25 30 32 32 52 63 62 47 64 54 47 42 43 39 40 37 36 30 28 30 31 28 35 31 23 16 4 4 7 10 11 12 13 15 16 17 27 21 17 10 14
27 30 29 23 31 51 66 66 58 71 59 55 52 50 45 39 38 32 28 27 27 27 31 34 28 23 13 9 4 4 7 10 11 12 13 12 14 17 19 27 34 33 31
23 30 30 32 39 76 69 67 73 68 64 57 61 54 48 41 36 34 36 36 26 25 32 25 20 15 9 4 5 5 6 10 11 7 11 15 14 16 17 27 28 27 27
25 34 35 44 50 55 69 67 74 72 63 58 59 55 49 43 42 41 41 45 41 34 23 13 12 15 15 14 9 8 8 8 3 4 10 12 12 13 14 14 17 21 25
18 46 51 43 70 77 74 82 78 72 62 61 55 45 42 46 43 39 41 39 36 31 24 23 21 25 21 16 10 7 11 10 9 8 8 7 13 16 19 20 21 23 28
22 65 59 59 57 74 79 80 74 70 65 59 46 50 53 49 39 30 26 33 37 40 36 29 27 24 20 18 15 15 14 11 13 19 16 10 9 11 18 25 28 29 29
55 58 55 77 89 83 79 74 71 70 70 64 66 59 49 43 37 27 23 33 44 43 32 31 30 26 26 26 24 21 20 15 11 15 21 14 11 5 6 22 28 28 29
Wind_Direction_850mb
264 268 262 260 256 251 247 241 245 251 244 237 232 233 238 251 254 223 219 31 25 15 5 18 40 39 38 38 41 40 37 32 35 36 35 33 34 32 35 33 27 30 35
264 269 268 258 254 250 248 246 252 255 248 244 237 235 242 250 245 218 201 159 38 352 355 360 46 50 45 40 43 43 41 35 33 34 35 35 35 33 35 38 37 31 35
262 261 263 258 250 251 243 249 251 246 245 244 240 237 241 248 246 220 205 207 158 316 339 335 24 42 55 40 43 45 45 38 31 33 35 37 37 37 36 35 36 42 37
264 261 256 256 249 248 246 247 245 241 247 242 239 239 238 241 237 214 206 211 190 301 319 316 284 52 50 35 37 43 39 39 37 31 36 38 39 40 37 36 34 37 40
262 257 252 249 249 249 253 250 244 239 241 244 239 243 242 242 231 215 198 190 196 296 285 262 201 25 22 33 41 20 34 35 36 31 35 40 42 43 40 40 38 36 38
256 258 247 253 250 250 252 248 252 243 242 250 241 245 239 240 228 210 194 169 185 292 276 232 229 294 334 41 46 38 15 32 39 34 30 41 45 46 42 39 38 37 40
258 256 253 251 252 248 251 244 242 245 237 240 240 235 224 216 220 201 183 172 199 208 267 253 241 258 274 258 26 5 353 18 30 37 25 42 40 45 49 44 38 39 38
265 260 260 256 252 244 245 241 228 228 240 238 225 203 175 177 192 180 176 182 195 194 224 288 240 261 256 253 242 315 329 348 4 20 30 23 31 40 49 49 43 40 38
268 264 255 253 242 239 242 236 229 230 231 228 222 204 164 176 137 155 171 186 198 200 225 249 262 269 260 260 254 326 314 327 336 23 348 10 13 28 40 41 50 40 37
280 273 261 247 240 235 235 238 235 228 234 225 209 206 206 178 165 143 162 189 194 210 241 253 261 272 262 255 250 301 301 318 319 328 332 347 354 19 27 31 36 39 31
304 288 263 241 236 231 231 230 238 228 236 224 219 196 213 211 197 178 164 169 173 172 232 234 246 241 267 295 301 314 311 314 319 322 309 307 345 352 11 18 28 26 51
312 291 270 241 236 227 226 230 230 226 228 230 220 204 201 189 192 188 174 184 172 131 183 182 185 258 264 277 292 299 323 325 336 327 300 306 319 325 343 2 5 22 37
312 287 285 253 226 214 220 219 208 217 210 202 202 204 201 215 220 211 201 175 160 142 142 161 174 250 297 295 303 303 337 340 337 326 297 335 343 346 342 328 348 351 356
309 281 285 248 215 214 216 216 214 199 194 197 187 212 204 209 210 212 203 187 158 147 146 126 83 5 23 30 33 320 199 155 129 50 51 73 59 23 15 19 358 330 142
310 275 267 230 214 221 219 214 203 206 199 188 192 204 217 201 197 197 203 216 189 153 148 140 110 106 104 125 115 111 97 64 63 78 61 44 59 65 47 45 58 73 101
316 298 249 224 215 218 213 200 201 214 196 180 189 210 195 189 186 186 188 185 182 187 148 147 139 133 130 123 104 87 100 85 87 86 83 82 94 85 92 94 102 93 94
313 303 257 223 211 207 206 215 220 209 180 176 182 180 175 173 175 176 176 173 182 185 175 149 148 143 136 138 119 93 100 95 81 51 27 12 19 33 89 101 117 156 111
299 303 240 221 200 209 213 207 193 175 175 173 165 168 166 164 166 168 167 170 174 160 169 157 148 141 130 120 107 89 70 49 46 63 354 335 324 9 73 48 114 154 156
293 285 234 215 212 214 205 188 179 171 184 165 161 162 157 159 161 160 162 169 160 162 168 156 150 144 133 119 98 44 49 33 21 22 17 54 54 45 49 309 266 280 308
282 266 264 224 214 217 198 175 173 187 162 153 152 152 150 156 153 155 157 156 157 154 156 146 149 150 143 130 83 48 10 29 43 43 43 46 42 40 38 28 14 325 307
269 254 243 238 222 204 179 174 184 158 151 146 145 144 144 147 146 150 150 145 146 147 142 143 144 146 141 129 118 44 26 44 47 47 29 29 24 17 24 43 33 30 32
278 257 215 221 205 181 170 172 159 149 147 148 146 145 142 142 137 134 129 117 107 115 131 136 142 137 127 115 98 53 18 348 350 6 360 12 39 16 22 46 45 36 29
276 216 212 195 153 146 167 163 152 149 147 152 145 143 142 141 141 135 129 128 124 125 113 105 129 119 120 112 72 31 357 348 15 20 342 13 26 16 18 358 353 16 19
253 190 169 159 157 161 157 155 153 149 152 149 144 144 139 135 133 130 133 130 126 119 115 116 113 111 105 95 83 44 34 27 41 22 357 29 26 32 22 18 20 17 26
231 181 161 162 174 164 156 155 155 152 147 139 136 134 129 124 127 130 132 136 133 124 121 116 108 98 95 86 67 48 31 17 47 48 45 43 18 43 27 35 36 38 45
173 166 158 174 166 157 156 156 154 149 141 134 134 132 125 123 124 121 121 125 119 111 111 107 103 100 85 74 65 57 50 37 49 49 40 34 37 38 39 42 48 55 57